Henry Tift Myers AP, Tifton,, GA

5:27 PM EST on December 07, 2019 (GMT -0500)
Myers

Weather History for KTMA - October, 2019

Change the Weather History Date:

Tuesday, October 15, 2019

  Actual Average Record
Temperature  
Mean Temperature 70 °F -  
Max Temperature 72 °F 80 °F 89 °F (2018)
Min Temperature 67 °F 55 °F 51 °F (2015)
Cooling Degree Days 4    
Growing Degree Days 20 (Base 50)    
Moisture  
Dew Point 69 °F    
Average Humidity 96    
Maximum Humidity 99    
Minimum Humidity 85    
Precipitation  
Precipitation 0.00 in - - ()
Sea Level Pressure  
Sea Level Pressure 30.03 in    
Wind  
Wind Speed 3 mph ()    
Max Wind Speed 7 mph    
Max Gust Speed -    
Visibility 8.9 miles    
Events Rain    
Averages and records for this station are not official NWS values.
T = Trace of Precipitation, MM = Missing Value Source: Averaged Metar Reports

Daily Weather History Graph

Daily Weather History Graph

Search for Another Location

Airport or City:

Astronomy

Oct. 15, 2019 Rise Set
Actual Time 7:36 AM EDT 7:02 PM EDT
Civil Twilight 7:12 AM EDT 7:26 PM EDT
Nautical Twilight 6:44 AM EDT 7:54 PM EDT
Astronomical Twilight 6:15 AM EDT 8:23 PM EDT
Moon 8:26 PM EDT (10/15) 9:03 AM EDT (10/15)
Length of Visible Light 12h 14m
Length of Day
11h 25m
Full, 97% of the Moon is Illuminated
Oct 15
Full
Oct 21
Last Quarter
Oct 27
New
Nov 4
First Quarter
Nov 12
Full

Hourly Weather History & Observations

Time (EDT) Temp. Dew Point Humidity Pressure Visibility Wind Dir Wind Speed Gust Speed Precip Events Conditions
12:15 AM 72.9 °F 68.2 °F 85% 30.11 in 10.0 mi WSW 3.5 mph - N/A Rain Light Rain
12:35 AM 71.2 °F 69.3 °F 93% 30.10 in 10.0 mi North 3.5 mph - N/A   Overcast
12:55 AM 71.1 °F 69.8 °F 96% 30.09 in 10.0 mi Calm Calm - N/A Rain Light Rain
1:15 AM 71.2 °F 69.4 °F 94% 30.09 in 10.0 mi NNE 3.5 mph - N/A   Overcast
1:35 AM 71.2 °F 68.7 °F 92% 30.09 in 10.0 mi North 3.5 mph - N/A   Mostly Cloudy
1:55 AM 71.6 °F 67.8 °F 88% 30.09 in 10.0 mi North 3.5 mph - N/A   Mostly Cloudy
2:15 AM 71.1 °F 67.3 °F 88% 30.08 in 10.0 mi North 3.5 mph - N/A   Light Drizzle
2:35 AM 70.7 °F 67.1 °F 88% 30.07 in 10.0 mi NNE 3.5 mph - N/A   Overcast
2:55 AM 70.3 °F 67.1 °F 89% 30.07 in 10.0 mi Calm Calm - N/A Rain Light Rain
3:15 AM 70.0 °F 66.7 °F 89% 30.07 in 10.0 mi North 3.5 mph - N/A   Light Drizzle
3:35 AM 69.8 °F 67.3 °F 92% 30.07 in 10.0 mi North 3.5 mph - N/A   Light Drizzle
3:55 AM 69.3 °F 67.3 °F 93% 30.06 in 10.0 mi North 3.5 mph - N/A Rain Light Rain
4:15 AM 68.9 °F 67.5 °F 95% 30.06 in 10.0 mi Calm Calm - N/A Rain Light Rain
4:35 AM 68.7 °F 67.8 °F 97% 30.06 in 10.0 mi Calm Calm - N/A Rain Rain
4:55 AM 68.5 °F 68.0 °F 98% 30.06 in 10.0 mi Calm Calm - N/A   Scattered Clouds
5:15 AM 68.7 °F 68.0 °F 98% 30.06 in 10.0 mi Calm Calm - N/A   Mostly Cloudy
5:35 AM 68.5 °F 68.0 °F 98% 30.06 in 10.0 mi Calm Calm - N/A   Drizzle
5:55 AM 68.5 °F 68.2 °F 99% 30.06 in 10.0 mi ENE 3.5 mph - N/A   Overcast
6:15 AM 68.5 °F 68.2 °F 99% 30.07 in 10.0 mi NE 4.6 mph - N/A   Overcast
6:35 AM 68.7 °F 68.0 °F 98% 30.07 in 7.0 mi ENE 4.6 mph - N/A Rain Light Rain
6:55 AM 68.5 °F 68.2 °F 99% 30.07 in 10.0 mi NE 3.5 mph - N/A   Drizzle
7:15 AM 68.5 °F 68.0 °F 98% 30.07 in 10.0 mi Calm Calm - N/A   Light Drizzle
7:35 AM 68.5 °F 68.0 °F 98% 30.08 in 10.0 mi ENE 4.6 mph - N/A Rain Rain
7:55 AM 68.4 °F 68.0 °F 99% 30.08 in 10.0 mi ENE 3.5 mph - N/A Rain Rain
8:15 AM 68.4 °F 68.0 °F 99% 30.08 in 7.0 mi Calm Calm - N/A Rain Light Rain
8:35 AM 68.4 °F 68.0 °F 99% 30.08 in 7.0 mi Calm Calm - N/A   Overcast
8:55 AM 68.5 °F 68.0 °F 98% 30.09 in 10.0 mi Calm Calm - N/A   Overcast
9:15 AM 68.9 °F 68.2 °F 98% 30.09 in 7.0 mi Calm Calm - N/A Rain Rain
9:35 AM 68.7 °F 68.0 °F 98% 30.09 in 7.0 mi ENE 3.5 mph - N/A Rain Light Rain
9:55 AM 68.5 °F 68.0 °F 98% 30.09 in 7.0 mi NE 4.6 mph - N/A Rain Light Rain
10:15 AM 68.9 °F 68.2 °F 98% 30.09 in 7.0 mi East 3.5 mph - N/A Rain Rain
10:35 AM 68.9 °F 68.4 °F 98% 30.08 in 7.0 mi East 4.6 mph - N/A   Drizzle
10:55 AM 69.4 °F 68.9 °F 98% 30.08 in 7.0 mi East 6.9 mph - N/A Rain Light Rain
11:15 AM 69.8 °F 69.3 °F 98% 30.08 in 7.0 mi ENE 4.6 mph - N/A Rain Light Rain
11:35 AM 70.3 °F 69.6 °F 98% 30.08 in 10.0 mi East 3.5 mph - N/A Rain Rain
11:55 AM 70.7 °F 70.0 °F 98% 30.08 in 10.0 mi ESE 3.5 mph - N/A   Light Drizzle
12:15 PM 70.7 °F 69.8 °F 97% 30.09 in 10.0 mi SE 3.5 mph - N/A Rain Light Rain
12:35 PM 70.7 °F 70.0 °F 98% 30.08 in 10.0 mi Calm Calm - N/A Rain Light Rain
12:55 PM 70.9 °F 70.3 °F 98% 30.07 in 7.0 mi Calm Calm - N/A Rain Light Rain
1:15 PM 70.9 °F 70.2 °F 98% 30.07 in 7.0 mi Calm Calm - N/A Rain Light Rain
1:35 PM 70.9 °F 70.0 °F 97% 30.06 in 10.0 mi Calm Calm - N/A Rain Light Rain
1:55 PM 71.2 °F 70.3 °F 97% 30.06 in 10.0 mi ESE 3.5 mph - N/A Rain Light Rain
2:15 PM 71.6 °F 70.5 °F 96% 30.05 in 10.0 mi Calm Calm - N/A Rain Light Rain
2:35 PM 71.6 °F 70.7 °F 97% 30.04 in 7.0 mi Calm Calm - N/A Rain Rain
2:55 PM 71.4 °F 70.7 °F 98% 30.03 in 10.0 mi Calm Calm - N/A   Light Drizzle
3:15 PM 71.6 °F 70.7 °F 97% 30.01 in 10.0 mi Calm Calm - N/A Rain Light Rain
3:35 PM 71.8 °F 71.1 °F 98% 30.01 in 10.0 mi East 3.5 mph - N/A Rain Light Rain
3:55 PM 71.6 °F 70.3 °F 96% 30.01 in 10.0 mi East 4.6 mph - N/A   Overcast
4:15 PM 71.6 °F 70.2 °F 95% 29.99 in 10.0 mi East 3.5 mph - N/A   Overcast
4:35 PM 71.6 °F 70.5 °F 96% 29.98 in 10.0 mi ESE 3.5 mph - N/A   Overcast
4:55 PM 71.6 °F 70.5 °F 96% 29.97 in 10.0 mi East 3.5 mph - N/A   Overcast
5:15 PM 71.6 °F 70.5 °F 96% 29.97 in 10.0 mi East 4.6 mph - N/A   Overcast
5:35 PM 71.6 °F 70.2 °F 95% 29.96 in 10.0 mi East 3.5 mph - N/A   Overcast
5:55 PM 71.6 °F 70.0 °F 95% 29.96 in 10.0 mi East 4.6 mph - N/A   Overcast
6:15 PM 71.6 °F 69.8 °F 94% 29.96 in 10.0 mi East 4.6 mph - N/A   Overcast
6:35 PM 71.1 °F 69.8 °F 96% 29.97 in 10.0 mi Calm Calm - N/A   Light Drizzle
6:55 PM 70.9 °F 69.8 °F 96% 29.96 in 10.0 mi ESE 3.5 mph - N/A Rain Rain
7:15 PM 70.3 °F 69.8 °F 98% 29.96 in 5.0 mi SE 5.8 mph - N/A   Drizzle
7:35 PM 70.0 °F 69.6 °F 99% 29.95 in 7.0 mi ESE 4.6 mph - N/A   Light Drizzle
7:55 PM 70.0 °F 69.4 °F 98% 29.95 in 10.0 mi ESE 5.8 mph - N/A   Light Drizzle
8:15 PM 70.0 °F 69.4 °F 98% 29.95 in 10.0 mi ESE 5.8 mph - N/A Rain Light Rain
8:35 PM 70.0 °F 69.3 °F 98% 29.96 in 10.0 mi East 3.5 mph - N/A Rain Light Rain
8:55 PM 70.0 °F 69.3 °F 98% 29.97 in 10.0 mi Calm Calm - N/A Rain Light Rain
9:15 PM 69.8 °F 69.3 °F 98% 29.96 in 5.0 mi East 3.5 mph - N/A Rain Rain
9:35 PM 69.8 °F 69.3 °F 98% 29.96 in 4.0 mi ESE 3.5 mph - N/A Rain Heavy Rain
9:55 PM 69.4 °F 69.1 °F 99% 29.95 in 10.0 mi ENE 5.8 mph - N/A   Light Drizzle
10:15 PM 69.1 °F 68.9 °F 99% 29.95 in 10.0 mi ENE 5.8 mph - N/A Rain Rain
10:35 PM 68.9 °F 68.4 °F 98% 29.94 in 4.0 mi ENE 5.8 mph - N/A Rain Heavy Rain
10:55 PM 68.9 °F 68.4 °F 98% 29.96 in 3.0 mi ESE 3.5 mph - N/A Rain Heavy Rain
11:15 PM 67.8 °F 67.3 °F 98% 29.96 in 5.0 mi East 4.6 mph - N/A Rain Rain
11:35 PM 67.3 °F 67.1 °F 99% 29.95 in 10.0 mi ENE 3.5 mph - N/A Rain Light Rain